Find Starlink 37270

NORAD ID: 68728 Int'l Des: 2026-081 Owner: SPXS Country: US Constellation: starlink operational
LEOCIRCULAR

实时位置

正在加载3D地球...

关于 Starlink 37270

正在加载描述...

即将过境

Passes for default location (London). Set your location on the main map for personalized predictions.

高度历史

Loading altitude history...

两行轨道根数

1 68728C 26081AE 26105.41715278 .00635650 00000+0 81101-3 0 1054
2 68728 53.1629 237.8231 0006979 304.5504 207.9475 16.06239137 10
Epoch: Apr 15, 2026 • Age: 24 hours

当前状态

高度 269.8 km
速度 7.75 km/s
星下点 -53.16°S, 52.51°W
发射日期 Apr 14, 2026
运行时间 1 days
类型 internet

技术详情

分类 Payload
质量 575.00 kg
干质量 530.00 kg
总质量 575.00 kg
长度 0.30 m
直径 4.10 m
跨度 29.00 m
形状 Box + pan
制造商 SPXS
平台类型 Starlink V2MO
阶段状态 In Orbit
所有者/国家 SPXS/US

Most Searched